Flag for U.S.A. Weather past 2 weeks in Albuquerque, New Mexico, U.S.A.

Now
51 °F

Passing clouds.


Feels Like: 50 °F
Forecast: 49 / 79 °F
Wind: 5 mph from West

Location: Albuquerque International Airport

Current Time: Oct 24, 2014 at 9:00:02 AM

Latest Report: Oct 24, 2014 at 7:52 AM


Visibility: 10 mi

Pressure: 30.17 "Hg

Humidity: 56%

Dew point: 36 °F

Location of AlbuquerqueLocation

Historic Weather in Albuquerque — Graph

°F

Albuquerque temperature yesterday

Maximum temperature yesterday: 74 °F (at 3:52 PM)
Minimum temperature yesterday: 52 °F (at 4:52 AM)
Average temperature yesterday: 62 °F

Past Weeks' High & Low Weather Summary

 TemperatureHumidityPressure
High79 °F (Oct 16, 3:52 PM)93% (Oct 9, 8:52 AM)30.22 "Hg (Oct 9, 8:52 AM)
Low41 °F (Oct 13, 7:52 AM)13% (Oct 12, 5:52 PM)29.58 "Hg (Oct 12, 1:52 PM)
Average60 °F49%29.99 "Hg
* Reported Oct 9 7:52 AM — Oct 24 7:52 AM, Albuquerque, Weather by CustomWeather, © 2014

Note: Actual official high and low records may vary slightly from our data, if they occured in-between our weather recording intervals... More about our weather records

Advertising

Albuquerque weather history for previous 24 hours

 ConditionsComfort  
Time TempWeatherWind HumidityBarometerVisibility
7:52 AM
Oct 24
51 °FPassing clouds.5 mph56%30.17 "Hg10 mi
6:52 AM49 °FClear.5 mph61%30.14 "Hg10 mi
5:52 AM47 °FClear.No wind64%30.14 "Hg10 mi
4:52 AM55 °FClear.3 mph45%30.10 "Hg10 mi
3:52 AM49 °FClear.3 mph64%30.11 "Hg10 mi
2:52 AM54 °FClear.N/A53%30.11 "Hg10 mi
1:52 AM57 °FClear.No wind47%30.10 "Hg10 mi
12:52 AM61 °FClear.No wind39%30.11 "Hg10 mi
11:52 PM
Oct 23
58 °FClear.3 mph46%30.10 "Hg10 mi
10:52 PM56 °FClear.5 mph51%30.11 "Hg10 mi
9:52 PM62 °FPassing clouds.6 mph39%30.09 "Hg10 mi
8:52 PM66 °FPassing clouds.5 mph32%30.09 "Hg10 mi
7:52 PM64 °FPassing clouds.3 mph37%30.08 "Hg10 mi
6:52 PM72 °FPassing clouds.No wind25%30.04 "Hg10 mi
5:52 PM73 °FPassing clouds.6 mph25%30.02 "Hg10 mi
4:52 PM74 °FPassing clouds.7 mph23%30.01 "Hg10 mi
3:52 PM74 °FPassing clouds.7 mph24%30.01 "Hg10 mi
2:52 PM72 °FSunny.3 mph27%30.02 "Hg10 mi
1:52 PM72 °FSunny.3 mph30%30.05 "Hg10 mi
12:52 PM67 °FPassing clouds.No wind39%30.10 "Hg10 mi
11:52 AM65 °FPassing clouds.5 mph51%30.12 "Hg10 mi
10:52 AM62 °FPassing clouds.No wind54%30.14 "Hg10 mi
9:52 AM59 °FSunny.5 mph54%30.15 "Hg10 mi
Weather by CustomWeather, © 2014

See weather overviewHow to use our weather pages